ONEWEB-0033, 45142

Orbit data source: Space-Track

ONEWEB-0033, 45142 is a payload satellite owned by One Web (UK) in LEO that was launched on Thu, 06 Feb 2020 UTC via a SOYUZ-2-1B launch vehicle from the Tyuratam Missile And Space Complex (TTMTR). Payload-class satellites include a variety of spacecraft equipped with specific instruments for various scientific and technological missions. These include communications satellites like Starlink; space stations such as the ISS; scientific satellites like the Hubble; Earth observation satellites from companies like Planet Labs, Umbra, and HawkEye 360; GPS; miniature CubeSats for education and research; and military/defense satellites.

Loading next visibility...
Identifier
45142, 2020-008M
Orbit
LEO
Country
Flag of UKUK
Related business
Manufacturer
One Web
Mission
Operational Commercial Communications
Bus & Motor
ARROW, Unknown motor
Mass
148 kg wet, ~140 kg dry
Launch date (UTC)
2020-02-06 (6 years ago)
Launch vehicle
SOYUZ-2-1B
Launch site
Tyuratam Missile And Space Complex (TTMTR)
Object type
Payload
Rocket body
Debris
Shape & HBR
Trap Box + 2 Pan, 6.7 m
Radar Cross Section
3.464 m², Large (>1 m²)

Expand to show TLE details & history
Last TLE update: 7 hours ago

TLE from 7 hours ago
0 ONEWEB-0033
1 45142U 20008M   26035.11443132 -.00000159  00000-0 -49212-3 0  9999
2 45142  87.8750  62.8011 0001792 111.1248 249.0071 13.10375577290786
Epoch: 2026-02-04T02:44Z
TLE epoch observation values (Epoch: 2026-02-04T02:44:46.866Z)
Latitude
Longitude
-112.67983°
Altitude
1,225.082 km
Speed
7.242 km/s
True Right ascension
04h 11m 12s
True Declination
0° 00' 00"
Sunlit
Object was in daylight at epoch
Visualization orbit readout
Latitude
Unknown
Longitude
Unknown
Altitude
Unknown
Speed
Unknown
Apparent Right ascension
Unknown
Apparent Declination
Unknown
Sunlit
N/A
Visualization observer readout
Local Sidereal Time
11:44:26
Azimuth
Unknown
Elevation
Unknown
Doppler factor
Unknown
Orbital elements
Apogee altitude
1,220.188 km
Perigee altitude
1,217.465 km
Semi-major axis
7,596.963 km
Eccentricity
0.00018
Inclination
87.875°
RAAN
62.8011°
Arg. of periapsis
111.1248°
True anomaly
248.98793°
Mean anomaly
249.0071°
Eccentric anomaly
248.99751°
Mean motion
3.27781 °/min
Orbital period
109.83 mins
BSTAR
-0.00049212
Loading maneuver chart data...
Computing Atmospheric mass density...
Loading historical data...
Loading historical data...
Loading historical data...
Loading historical data...
Loading historical data...
Loading historical data...
Loading historical data...

Documentation

Showing up to 5 results
|